When you browse on this site, cookies collect data to enhance your experience and personalize the content and advertising you see.
Visit our Privacy Policy to learn more. By continuing to use the site, you agree to this use of cookies and data.
  • In Hungary
  • List of Countries
  • For 7 days
  • Water Temperature
  • Weather Map
  • News
  • Weather Widgets
  • user-avatar
    Login

    Hourly Weather Novograd-Volynski

    Today, 12 November, Tuesday

    Time Temperature Precipitation Wind Pressure Humidity
    00:00 +4°C° 0 mm 2 mps 745 mmHg 90%
    01:00 +4°C° 0 mm 2 mps 745 mmHg 90%
    02:00 +4°C° 0 mm 2 mps 746 mmHg 92%
    03:00 +4°C° 0 mm 2 mps 746 mmHg 91%
    04:00 +4°C° 0 mm 2 mps 746 mmHg 91%
    05:00 +4°C° 0 mm 2 mps 745 mmHg 90%
    06:00 +3°C° 0 mm 3 mps 745 mmHg 90%
    07:00 +3°C° 0 mm 3 mps 746 mmHg 89%
    08:00 +3°C° 0 mm 4 mps 746 mmHg 85%
    09:00 +5°C° 0 mm 5 mps 746 mmHg 79%
    10:00 +7°C° 0 mm 5 mps 746 mmHg 73%
    11:00 +8°C° 0 mm 6 mps 746 mmHg 67%
    12:00 +9°C° 0 mm 6 mps 745 mmHg 65%
    13:00 +10°C° 0 mm 6 mps 745 mmHg 63%
    14:00 +12°C° 0 mm 5 mps 745 mmHg 62%
    15:00 +10°C° 0 mm 5 mps 744 mmHg 66%
    16:00 +10°C° 0 mm 5 mps 744 mmHg 70%
    17:00 +9°C° 0 mm 6 mps 744 mmHg 74%
    18:00 +9°C° 0 mm 6 mps 744 mmHg 76%
    19:00 +9°C° 0 mm 6 mps 743 mmHg 79%
    20:00 +9°C° 0 mm 6 mps 743 mmHg 81%
    21:00 +9°C° 0 mm 7 mps 743 mmHg 80%
    22:00 +10°C° 0 mm 7 mps 743 mmHg 79%
    23:00 +10°C° 0 mm 7 mps 743 mmHg 79%

    Tomorrow, 13 November, Wednesday

    Time Temperature Precipitation Wind Pressure Humidity
    00:00 +10°C° 0 mm 7 mps 743 mmHg 76%
    01:00 +10°C° 0 mm 7 mps 743 mmHg 73%
    02:00 +10°C° 0 mm 7 mps 743 mmHg 70%
    03:00 +10°C° 0 mm 7 mps 743 mmHg 70%
    04:00 +10°C° 0 mm 7 mps 742 mmHg 71%
    05:00 +10°C° 0 mm 7 mps 742 mmHg 71%
    06:00 +10°C° 0 mm 7 mps 742 mmHg 72%
    07:00 +10°C° 0 mm 7 mps 742 mmHg 73%
    08:00 +9°C° 0 mm 7 mps 742 mmHg 74%
    09:00 +11°C° 0 mm 8 mps 742 mmHg 67%
    10:00 +13°C° 0 mm 8 mps 742 mmHg 61%
    11:00 +15°C° 0 mm 9 mps 741 mmHg 55%
    12:00 +16°C° 0 mm 9 mps 741 mmHg 52%
    13:00 +17°C° 0 mm 9 mps 741 mmHg 49%
    14:00 +17°C° 0 mm 9 mps 741 mmHg 47%
    15:00 +16°C° 0 mm 8 mps 740 mmHg 49%
    16:00 +15°C° 0 mm 8 mps 740 mmHg 51%
    17:00 +15°C° 0 mm 8 mps 740 mmHg 53%
    18:00 +13°C° 0 mm 8 mps 740 mmHg 53%
    19:00 +13°C° 0 mm 9 mps 740 mmHg 54%
    20:00 +13°C° 0 mm 9 mps 740 mmHg 55%
    21:00 +13°C° 0 mm 9 mps 740 mmHg 54%
    22:00 +13°C° 0 mm 9 mps 740 mmHg 53%
    23:00 +12°C° 0 mm 9 mps 740 mmHg 53%

    Day after tomorrow, 14 November, Thursday

    Time Temperature Precipitation Wind Pressure Humidity
    00:00 +12°C° 0 mm 8 mps 740 mmHg 53%
    01:00 +12°C° 0 mm 8 mps 740 mmHg 54%
    02:00 +11°C° 0 mm 8 mps 741 mmHg 54%
    03:00 +11°C° 0 mm 8 mps 741 mmHg 57%
    04:00 +10°C° 0 mm 7 mps 741 mmHg 59%
    05:00 +10°C° 0 mm 7 mps 741 mmHg 61%
    06:00 +9°C° 0 mm 7 mps 741 mmHg 64%
    07:00 +9°C° 0 mm 7 mps 741 mmHg 68%
    08:00 +8°C° 0 mm 6 mps 742 mmHg 71%
    09:00 +9°C° 0 mm 6 mps 742 mmHg 68%
    10:00 +10°C° 0 mm 6 mps 742 mmHg 65%
    11:00 +11°C° 0 mm 6 mps 742 mmHg 62%
    12:00 +13°C° 0 mm 6 mps 743 mmHg 59%
    13:00 +13°C° 0 mm 6 mps 743 mmHg 56%
    14:00 +14°C° 0 mm 5 mps 743 mmHg 54%
    15:00 +13°C° 0 mm 5 mps 743 mmHg 57%
    16:00 +10°C° 0 mm 5 mps 742 mmHg 61%
    17:00 +9°C° 0 mm 5 mps 742 mmHg 65%
    18:00 +9°C° 0 mm 5 mps 743 mmHg 67%
    19:00 +8°C° 0 mm 4 mps 743 mmHg 70%
    20:00 +8°C° 0 mm 4 mps 743 mmHg 72%
    21:00 +8°C° 0 mm 4 mps 743 mmHg 73%
    22:00 +7°C° 0 mm 4 mps 743 mmHg 74%
    23:00 +7°C° 0 mm 4 mps 744 mmHg 75%

    15 November, Friday

    Time Temperature Precipitation Wind Pressure Humidity
    00:00 +7°C° 0 mm 4 mps 744 mmHg 74%
    01:00 +7°C° 0 mm 4 mps 744 mmHg 73%
    02:00 +6°C° 0 mm 4 mps 744 mmHg 73%
    03:00 +6°C° 0 mm 4 mps 744 mmHg 72%
    04:00 +5°C° 0 mm 4 mps 744 mmHg 71%
    05:00 +5°C° 0 mm 4 mps 744 mmHg 70%
    06:00 +5°C° 0 mm 4 mps 744 mmHg 69%
    07:00 +5°C° 0 mm 4 mps 745 mmHg 68%
    08:00 +4°C° 0 mm 4 mps 745 mmHg 67%
    09:00 +5°C° 0 mm 4 mps 745 mmHg 67%
    10:00 +6°C° 0 mm 5 mps 745 mmHg 65%
    11:00 +7°C° 0 mm 5 mps 745 mmHg 64%
    12:00 +7°C° 0 mm 5 mps 746 mmHg 63%
    13:00 +8°C° 0 mm 4 mps 746 mmHg 63%
    14:00 +8°C° 0 mm 4 mps 746 mmHg 62%
    15:00 +7°C° 0 mm 4 mps 746 mmHg 66%
    16:00 +6°C° 0 mm 4 mps 746 mmHg 69%
    17:00 +5°C° 0 mm 4 mps 746 mmHg 72%
    18:00 +5°C° 0 mm 4 mps 746 mmHg 73%
    19:00 +5°C° 0 mm 4 mps 746 mmHg 73%
    20:00 +4°C° 0 mm 4 mps 746 mmHg 73%
    21:00 +4°C° 0 mm 4 mps 746 mmHg 74%
    22:00 +4°C° 0 mm 4 mps 747 mmHg 75%
    23:00 +4°C° 0 mm 3 mps 747 mmHg 76%

    16 November, Saturday

    Time Temperature Precipitation Wind Pressure Humidity
    00:00 +3°C° 0 mm 3 mps 747 mmHg 78%
    01:00 +3°C° 0 mm 3 mps 747 mmHg 79%
    02:00 +3°C° 0 mm 3 mps 747 mmHg 80%
    03:00 +3°C° 0 mm 3 mps 747 mmHg 82%
    04:00 +3°C° 0 mm 3 mps 747 mmHg 83%
    05:00 +3°C° 0 mm 3 mps 747 mmHg 85%
    06:00 +3°C° 0 mm 4 mps 747 mmHg 85%
    07:00 +3°C° 0 mm 4 mps 747 mmHg 86%
    08:00 +3°C° 0 mm 4 mps 747 mmHg 86%
    09:00 +5°C° 0 mm 4 mps 748 mmHg 81%
    10:00 +6°C° 0 mm 4 mps 748 mmHg 75%
    11:00 +7°C° 0 mm 4 mps 748 mmHg 69%
    12:00 +8°C° 0 mm 4 mps 748 mmHg 66%
    13:00 +10°C° 0 mm 4 mps 748 mmHg 64%
    14:00 +11°C° 0 mm 4 mps 748 mmHg 61%
    15:00 +9°C° 0 mm 3 mps 748 mmHg 65%
    16:00 +8°C° 0 mm 3 mps 748 mmHg 68%
    17:00 +7°C° 0 mm 3 mps 748 mmHg 72%
    18:00 +7°C° 0 mm 3 mps 748 mmHg 73%
    19:00 +5°C° 0 mm 4 mps 748 mmHg 74%
    20:00 +5°C° 0 mm 4 mps 749 mmHg 75%
    21:00 +5°C° 0 mm 4 mps 749 mmHg 77%
    22:00 +4°C° 0 mm 4 mps 749 mmHg 78%
    23:00 +4°C° 0 mm 4 mps 749 mmHg 79%

    17 November, Sunday

    Time Temperature Precipitation Wind Pressure Humidity
    00:00 +3°C° 0 mm 4 mps 749 mmHg 80%
    01:00 +3°C° 0 mm 4 mps 749 mmHg 81%
    02:00 +1°C° 0 mm 4 mps 749 mmHg 82%
    03:00 +1°C° 0 mm 4 mps 749 mmHg 83%
    04:00 +1°C° 0 mm 4 mps 749 mmHg 85%
    05:00 0°C° 0 mm 4 mps 749 mmHg 86%
    06:00 0°C° 0 mm 4 mps 749 mmHg 86%
    07:00 0°C° 0 mm 4 mps 749 mmHg 86%
    08:00 0°C° 0 mm 5 mps 749 mmHg 85%
    09:00 +1°C° 0 mm 5 mps 749 mmHg 79%
    10:00 +3°C° 0 mm 5 mps 749 mmHg 73%
    11:00 +4°C° 0 mm 6 mps 749 mmHg 67%
    12:00 +5°C° 0 mm 6 mps 749 mmHg 64%
    13:00 +5°C° 0 mm 6 mps 749 mmHg 62%
    14:00 +7°C° 0 mm 6 mps 748 mmHg 60%
    15:00 +5°C° 0 mm 6 mps 748 mmHg 64%
    16:00 +5°C° 0 mm 5 mps 748 mmHg 69%
    17:00 +3°C° 0 mm 5 mps 748 mmHg 73%
    18:00 +3°C° 0 mm 5 mps 748 mmHg 77%
    19:00 +2°C° 0 mm 5 mps 748 mmHg 80%
    20:00 +2°C° 0 mm 6 mps 748 mmHg 84%
    21:00 +3°C° 0 mm 6 mps 748 mmHg 82%
    22:00 +3°C° 0 mm 6 mps 748 mmHg 80%
    23:00 +4°C° 0 mm 7 mps 748 mmHg 78%
    Show more